Zurück zum Katalog

STARLINK-30890

AktivKommunikationVLEO
NORAD 58362·PAYLOAD·🇺🇸 United States

Gestartet Nov 18, 2023 von Cape Canaveral Space Force Station

Loading…

Nächste Überflüge (nächste 24 Stunden)

TLE

AktuellSource: CelesTrak SupGP

Epoche: Sep 15, 2026, 02:17 UTC

1 58362C 23177M   26258.09562500  .00022547  00000+0  81643-3 0  2586
2 58362  43.0041   0.8887 0002027 265.9274 151.3198 15.27575531    15

Verfolge STARLINK-30890 in Echtzeit mit AllMySat

Download on the App Store